CAPE
31 4 0 0 0 0 0 0 0 0 0 0 0 0 0 0 0 0 0 3 6 9 17 20 25 29 34
4 2 0 0 0 0 0 0 0 0 0 0 0 0 0 0 0 1 1 5 4 7 10 16 25 27 31
0 0 0 0 0 0 0 0 0 0 0 0 0 0 0 0 0 2 2 4 2 3 6 20 20 28 38
1 0 0 0 0 0 0 0 0 0 0 0 0 0 0 0 0 1 1 0 2 7 15 14 18 15 27
0 0 0 0 0 0 0 0 0 0 0 0 0 0 0 0 0 0 0 0 6 10 17 15 18 20 21
0 0 0 0 0 0 0 0 0 0 0 0 0 0 0 0 0 0 0 3 7 16 9 9 13 12 12
0 0 0 0 0 0 0 0 0 0 0 0 0 0 0 0 0 0 0 2 6 11 7 6 7 8 8
0 0 0 0 0 0 0 0 0 0 0 0 0 0 0 0 0 0 0 0 2 3 3 4 6 7 5
0 0 0 0 0 0 0 0 0 0 0 0 0 0 0 0 0 0 0 0 0 0 0 1 5 2 1
0 0 0 0 0 0 0 0 0 0 0 0 0 0 0 0 0 0 0 0 0 0 0 0 0 0 0
0 0 0 0 0 0 0 0 0 0 0 0 0 0 0 0 0 0 0 0 0 0 0 0 0 1 0
0 0 0 0 0 0 0 0 0 0 0 0 0 0 0 0 0 0 0 0 0 0 0 0 0 0 2
0 0 0 0 0 0 0 0 0 0 0 0 0 0 3 0 0 0 0 0 0 0 0 0 0 0 0
0 0 0 0 1 0 1 3 0 0 0 0 0 1 1 0 0 0 0 0 0 0 0 0 0 0 0
0 0 0 1 2 1 1 0 0 0 0 0 0 0 0 0 0 0 0 0 0 0 0 0 0 0 0
0 0 0 0 0 1 0 0 0 0 0 0 0 0 0 0 0 0 0 0 0 0 0 0 0 0 0
0 0 0 0 0 1 0 0 0 0 0 0 0 0 0 0 0 0 0 0 0 0 0 0 0 0 0
CIN
-43 -94 -0 -0 -0 -0 -0 -0 -0 -0 -0 -0 -0 -0 -0 -0 -0 -0 -0 -0 -0 -0 -0 -0 -0 -0 -0
-89 -68 -0 -0 -0 -0 -0 -0 -0 -0 -0 -0 -0 -0 -0 -0 -0 -0 -0 -0 -0 -0 -0 -0 -0 -0 -0
-17 -0 -0 -0 -0 -0 -0 -0 -0 -0 -0 -0 -0 -0 -0 -0 -0 -0 -0 -0 -0 -0 -0 -0 -0 -0 -0
-164 -0 -0 -0 -0 -0 -0 -0 -0 -0 -0 -0 -0 -0 -0 -0 -0 -0 -0 -0 -0 -0 -0 -0 -0 -0 -0
-0 -0 -0 -0 -0 -0 -0 -0 -0 -0 -0 -0 -0 -0 -0 -0 -0 -0 -0 -0 -0 -0 -0 -0 -0 -0 -0
-0 -0 -0 -0 -0 -0 -0 -0 -0 -0 -0 -0 -0 -0 -0 -0 -0 -0 -0 -0 -0 -0 -0 -0 -0 -0 -0
-0 -0 -0 -0 -0 -0 -0 -0 -0 -0 -0 -0 -0 -0 -0 -0 -0 -0 -0 -0 -0 -0 -0 -0 -0 -0 -0
-0 -0 -0 -0 -0 -0 -0 -0 -0 -0 -0 -0 -0 -0 -0 -0 -0 -0 -0 -0 -0 -0 -0 -0 -0 -0 -0
-0 -0 -0 -0 -0 -0 -0 -0 -0 -0 -0 -0 -0 -0 -0 -0 -0 -0 -0 -0 -0 -0 -0 -0 -0 -0 -0
-0 -0 -0 -0 -0 -0 -0 -0 -0 -0 -0 -0 -0 -0 -0 -0 -0 -0 -0 -0 -0 -0 -0 -0 -0 -0 -0
-0 -0 -0 -0 -0 -0 -0 -0 -0 -0 -0 -0 -0 -0 -0 -0 -0 -0 -0 -0 -0 -0 -0 -0 -0 -0 -0
-0 -0 -0 -0 -0 -0 -0 -0 -0 -0 -0 -0 -0 -0 -0 -0 -0 -0 -0 -0 -0 -0 -0 -0 -0 -0 -0
-0 -0 -0 -0 -0 -0 -0 -0 -0 -0 -0 -0 -0 -0 -1 -0 -0 -0 -0 -0 -0 -0 -0 -0 -0 -0 -0
-0 -0 -0 -0 -0 -0 -0 -0 -0 -0 -0 -0 -0 -0 -1 -0 -0 -0 -0 -0 -0 -0 -0 -0 -0 -0 -0
-0 -0 -0 -0 -0 -0 -0 -0 -0 -0 -0 -0 -0 -0 -0 -0 -0 -0 -0 -0 -0 -0 -0 -0 -0 -0 -0
-0 -0 -0 -0 -0 -0 -0 -0 -0 -0 -0 -0 -0 -0 -0 -0 -0 -0 -0 -0 -0 -0 -0 -0 -0 -0 -0
-0 -0 -0 -0 -0 -0 -0 -0 -0 -0 -0 -0 -0 -0 -0 -0 -0 -0 -0 -0 -0 -0 -0 -0 -0 -0 -0
Wind_Speed
7 5 7 7 6 4 7 6 7 12 10 10 7 7 8 10 11 11 12 14 14 15 16 15 17 19 19
11 9 5 7 8 8 7 6 5 11 9 7 6 7 10 11 11 12 13 14 14 14 15 16 18 17 18
10 4 1 4 4 5 7 5 4 10 7 7 9 9 11 13 14 13 13 14 14 15 15 17 16 17 20
9 4 2 2 4 5 5 4 4 5 5 6 8 11 14 14 14 14 14 13 15 15 16 14 16 16 18
7 3 5 4 8 6 5 5 5 3 3 4 5 6 6 10 12 14 13 13 15 16 14 16 16 18 18
9 9 12 8 6 7 6 4 4 3 4 5 4 4 4 3 12 12 13 15 16 15 15 16 17 18 19
14 13 10 14 10 10 7 5 5 5 3 4 4 4 4 6 13 14 15 14 15 16 16 17 17 18 19
13 10 5 11 13 7 9 7 4 4 3 2 3 3 3 3 14 15 10 12 14 17 17 17 18 18 18
11 13 16 19 15 10 7 8 3 3 4 1 2 2 3 5 5 8 10 14 17 16 16 17 18 17 12
10 14 15 14 15 8 8 7 3 3 5 4 1 3 3 3 1 3 4 12 14 15 17 17 16 5 6
10 9 8 9 3 5 3 7 3 2 7 3 2 1 2 3 4 3 4 5 5 7 13 15 14 12 6
8 8 9 7 7 7 7 4 3 6 7 6 2 1 1 3 5 2 4 7 7 5 3 9 15 16 17
10 7 7 9 8 8 8 4 2 3 5 5 4 3 4 6 6 6 8 3 7 6 4 4 5 4 6
10 11 9 9 7 4 6 4 3 4 4 4 3 4 6 7 8 11 8 6 5 6 5 5 6 7 8
13 11 9 9 7 5 5 5 2 4 4 4 5 6 6 9 9 9 9 8 6 6 5 9 8 8 8
10 12 10 9 9 5 5 4 3 3 2 1 1 3 4 7 19 9 7 7 6 7 7 9 11 7 5
8 10 10 9 10 6 5 4 3 2 2 2 1 1 3 4 5 18 7 7 7 8 8 8 11 10 7
Wind_Direction
239 201 165 166 159 189 149 172 174 179 183 191 201 242 267 286 281 284 293 291 294 294 294 299 300 299 304
236 221 165 177 164 177 183 197 181 175 175 205 240 239 264 267 262 275 283 284 290 291 290 292 290 300 309
237 202 203 167 148 180 192 184 188 150 186 218 230 244 254 255 264 268 274 279 283 281 279 280 295 303 306
227 167 178 198 165 167 181 191 198 195 200 236 233 244 258 263 266 265 269 274 276 276 273 286 293 297 293
213 165 161 188 200 190 176 164 186 170 210 234 215 217 239 250 246 255 255 268 276 270 280 287 296 297 293
199 204 192 204 185 180 157 146 206 138 181 235 222 215 233 228 257 262 269 273 268 269 282 290 295 296 297
202 207 194 190 173 166 161 153 160 139 169 257 212 219 226 251 263 262 267 265 264 273 279 288 290 290 292
211 222 188 156 170 167 158 123 70 121 130 236 216 215 231 245 271 268 261 259 270 278 281 284 285 288 287
107 122 137 143 140 128 145 136 167 162 161 235 261 293 296 272 249 235 242 263 274 276 278 280 282 280 288
120 117 118 133 141 122 142 147 128 154 147 183 27 46 321 270 250 263 268 280 275 280 277 277 274 268 269
131 123 113 111 102 80 92 137 143 99 152 116 75 348 242 296 290 274 285 268 273 279 284 277 261 262 253
137 139 134 140 127 114 86 54 32 91 128 101 124 120 345 299 262 316 311 295 269 258 264 271 279 284 277
146 142 135 122 115 115 108 106 84 106 118 139 152 202 224 249 282 290 303 296 282 262 254 270 265 256 270
146 126 129 127 132 117 129 168 187 147 157 142 178 214 247 253 255 272 275 272 306 283 262 273 271 262 256
136 131 135 132 129 136 138 177 166 142 155 180 210 226 245 256 267 253 263 262 261 283 292 285 276 268 260
142 133 140 132 133 144 156 168 148 131 152 143 64 326 290 255 218 249 259 266 280 289 284 283 281 266 250
126 126 126 126 136 156 157 146 130 122 126 100 78 256 280 265 288 214 254 270 283 285 276 271 284 285 277